Location: Athens-Covington-Pier
(33.9360°N, 83.4200°W)
Time: 01:18:15
(UTC-04:00)

Envisat - Visible Passes

Search period start: 23 March 2019 00:00
Search period end: 02 April 2019 00:00
Orbit: 764 x 766 km, 98.2° (Epoch: 22 March)

Date Brightness Start Highest point End Pass type
(mag) Time Alt. Az. Time Alt. Az. Time Alt. Az.
23 Mar 4.0 20:40:00 10° S 20:44:54 50° W 20:49:50 10° NNW visible
24 Mar 3.0 20:03:09 10° SSE 20:08:10 68° ENE 20:13:13 10° N visible
24 Mar 6.2 21:46:26 10° WSW 21:47:34 11° W 21:48:43 10° WNW visible
25 Mar 5.2 21:06:17 10° SSW 21:10:31 27° W 21:14:48 10° NW visible
26 Mar 3.5 20:28:38 10° S 20:33:40 66° W 20:38:43 10° NNW visible
27 Mar 5.9 21:33:32 10° SW 21:36:15 14° W 21:38:58 10° WNW visible
28 Mar 4.7 20:54:40 10° SSW 20:59:15 35° W 21:03:53 10° NNW visible
29 Mar 3.1 20:17:23 10° SSE 20:22:27 85° WSW 20:27:33 10° NNW visible
30 Mar 5.7 21:21:25 10° SW 21:24:57 19° W 21:28:29 10° NW visible
31 Mar 4.2 20:43:10 10° S 20:48:00 45° W 20:52:52 10° NNW visible
